ES'HAIL 2

Last updated on Sun Apr 12 2026 00:02:55 GMT+0000 (Coordinated Universal Time)

1 43700U 18090A 26101.24060920 .00000146 00000+0 00000+0 0 9994 2 43700 0.0137 153.1592 0001243 245.6800 273.0308 1.00270669 27001
UTC large
Height (km)
Speed (km/s)
/
Latitude / Longitude
Inclination (degrees)
Orbital Period (minutes)
Azimuth
Elevation
Range (km)
Doppler Factor

Next 0 passes for location: London (51.5072 / 0.1276)

Sorry there are no passes over London.
ES'HAIL 2